Dewpoint
74 74 70 63 62 61 61 61 60 59 58 66 57 66 62 61 66 68 70 69 68 67 66 66 66 66 67 68 68 68 69 70 70 70 69 68 68 67
69 76 75 67 66 64 63 62 62 60 58 58 58 64 65 62 66 67 67 68 68 67 66 65 65 65 65 65 66 67 67 67 68 68 68 67 68 68
75 73 75 77 69 65 64 63 62 62 60 60 59 66 74 74 71 72 69 71 67 66 66 65 65 65 65 64 64 64 65 65 66 66 67 67 66 67
74 75 72 70 77 77 70 76 69 71 64 71 68 66 72 73 74 75 69 67 68 66 66 65 64 64 64 64 63 62 62 63 63 64 65 66 66 66
73 74 74 75 77 72 74 69 66 69 70 68 68 67 68 67 70 74 74 73 69 68 65 64 64 64 63 63 62 61 60 59 60 61 62 63 64 65
74 74 74 75 76 77 75 77 75 73 70 68 67 67 67 71 68 66 67 67 68 66 66 65 66 65 64 62 62 61 59 58 57 58 59 59 61 62
74 75 74 74 71 73 72 76 77 73 69 68 67 65 64 64 68 67 68 69 72 70 68 70 70 71 70 64 64 64 61 59 58 58 57 57 58 59
75 75 76 72 72 68 67 68 72 76 77 71 68 67 73 72 70 69 70 70 70 71 74 74 74 73 73 73 68 63 61 61 59 58 58 57 57 57
75 75 73 67 72 75 70 67 68 66 68 75 74 74 74 76 77 77 74 74 74 75 75 73 73 73 74 71 67 65 61 60 59 58 58 57 56 57
75 75 76 75 75 74 75 74 75 75 76 73 74 75 77 77 78 76 76 76 76 74 76 73 73 73 74 73 67 65 63 59 59 58 57 56 55 55
74 74 75 76 71 65 74 75 75 75 67 62 65 66 65 64 67 71 71 73 72 71 74 75 73 72 71 71 71 64 62 60 57 57 57 56 54 54
75 76 66 71 65 62 75 75 75 75 75 73 73 71 67 70 63 71 74 73 73 72 75 73 72 70 68 70 70 72 72 64 57 55 55 55 53 57
67 66 68 62 61 59 61 75 74 74 72 73 71 73 75 76 77 77 78 78 75 73 74 75 70 70 68 66 67 69 69 70 72 70 53 52 52 57
68 62 66 57 57 58 61 62 59 63 70 71 72 72 73 74 74 76 78 78 79 77 77 78 71 67 67 66 65 67 68 68 71 72 71 58 51 53
70 64 61 57 55 58 57 59 59 70 71 71 72 72 73 75 75 75 78 79 79 79 74 75 69 69 66 65 64 64 63 63 66 66 69 59 55 55
67 70 67 65 62 67 70 66 71 73 73 73 74 75 75 73 73 73 71 65 63 63 73 73 73 71 64 63 62 60 61 61 62 64 59 57 57 58
70 72 70 70 71 72 73 75 76 76 75 74 74 73 73 73 73 69 65 64 63 63 63 64 73 69 64 64 60 58 59 59 59 58 55 54 55 55
69 70 71 71 71 71 72 74 75 74 76 74 73 73 72 70 67 65 64 63 63 64 63 63 63 62 61 57 58 57 59 59 58 57 55 53 53 55
72 71 71 72 72 73 75 75 74 74 75 74 72 71 68 67 64 64 64 63 63 63 63 63 63 61 59 58 58 53 57 59 58 55 57 56 54 54
72 71 74 74 75 76 75 74 73 73 72 70 69 67 66 64 63 64 63 63 63 63 62 63 63 62 60 60 60 58 49 59 57 55 55 55 55 54
73 74 74 75 74 71 71 70 71 69 69 71 66 65 64 63 64 64 63 59 59 62 62 62 63 61 64 65 60 59 56 49 55 56 55 53 53 54
72 73 72 71 71 70 70 71 68 67 67 65 64 64 64 64 64 63 63 63 63 62 61 62 65 65 63 61 59 59 56 54 51 51 52 53 54 51
72 71 70 69 68 68 70 70 67 68 66 65 64 65 64 63 64 64 63 62 61 61 61 58 59 62 62 59 56 58 55 54 53 52 52 51 51 53
Lifted_Index
-4 -4 -4 -3 -2 -2 -2 -2 -2 -2 -3 -3 -2 -2 -2 -2 -2 -3 -3 -3 -3 -3 -2 -1 -0 -0 0 1 0 0 -0 -1 -1 -1 -0 1 1 1
-4 -5 -4 -4 -3 -2 -2 -2 -2 -2 -2 -2 -2 -2 -3 -3 -3 -3 -4 -3 -3 -3 -2 -2 -1 -1 0 1 1 1 1 1 0 0 1 1 2 2
-5 -5 -5 -5 -5 -4 -3 -3 -2 -2 -2 -2 -2 -3 -4 -4 -5 -4 -4 -4 -4 -3 -3 -2 -2 -1 -1 0 1 1 1 2 2 2 2 2 3 3
-5 -5 -5 -5 -6 -5 -5 -4 -3 -3 -3 -3 -3 -3 -4 -5 -5 -5 -5 -5 -4 -4 -3 -3 -3 -2 -2 -2 -1 -0 1 2 2 2 3 3 3 4
-6 -6 -5 -6 -6 -6 -6 -5 -5 -5 -5 -5 -4 -4 -4 -4 -5 -5 -6 -5 -5 -5 -4 -4 -4 -4 -4 -4 -3 -3 -1 -0 1 2 3 3 4 4
-6 -6 -6 -6 -6 -6 -6 -6 -6 -6 -5 -5 -5 -5 -4 -4 -5 -5 -6 -6 -6 -6 -5 -5 -5 -5 -5 -5 -5 -4 -4 -3 -1 0 2 3 3 4
-6 -6 -6 -5 -5 -6 -6 -6 -7 -7 -6 -6 -5 -5 -5 -5 -5 -5 -6 -6 -7 -7 -7 -7 -7 -7 -6 -6 -6 -5 -5 -4 -3 -2 -1 1 2 3
-6 -6 -6 -5 -5 -5 -6 -6 -6 -7 -7 -6 -6 -6 -6 -6 -7 -7 -7 -7 -8 -8 -7 -8 -8 -7 -7 -7 -6 -5 -5 -4 -4 -3 -2 -1 -0 1
-6 -6 -5 -5 -5 -5 -6 -6 -6 -7 -7 -7 -7 -7 -7 -8 -8 -8 -7 -8 -8 -8 -8 -7 -7 -7 -7 -7 -6 -5 -4 -3 -3 -3 -3 -2 -2 -1
-5 -5 -6 -5 -6 -6 -6 -7 -7 -7 -7 -6 -6 -7 -7 -8 -8 -8 -7 -7 -8 -8 -7 -7 -7 -7 -6 -6 -5 -4 -3 -2 -3 -3 -2 -2 -1 -1
-5 -5 -5 -6 -6 -6 -6 -7 -8 -8 -7 -6 -6 -7 -7 -7 -7 -7 -7 -7 -7 -7 -7 -6 -6 -5 -5 -5 -4 -3 -2 -2 -2 -2 -1 -1 -0 -0
-5 -5 -5 -5 -5 -6 -6 -7 -8 -8 -7 -7 -7 -7 -8 -8 -8 -8 -7 -7 -7 -7 -6 -6 -5 -4 -4 -3 -3 -2 -2 -1 -2 -1 -1 -0 0 0
-4 -4 -4 -5 -5 -5 -6 -7 -7 -8 -7 -7 -8 -8 -9 -9 -9 -8 -8 -7 -7 -7 -6 -5 -4 -3 -2 -2 -1 -1 -1 -1 -1 -1 -1 0 0 1
-4 -4 -4 -4 -5 -5 -6 -6 -7 -7 -7 -7 -8 -9 -9 -9 -9 -8 -8 -7 -7 -7 -6 -5 -3 -2 -1 -1 0 1 1 1 1 0 1 1 1 1
-5 -5 -5 -5 -6 -7 -7 -7 -7 -7 -7 -8 -9 -9 -9 -9 -8 -7 -7 -6 -6 -5 -4 -3 -2 -1 -0 1 2 3 4 4 4 3 3 3 3 4
-6 -6 -6 -6 -7 -8 -8 -8 -8 -8 -8 -9 -9 -9 -9 -8 -7 -6 -5 -3 -2 -2 -2 -2 -1 0 1 2 4 5 6 6 6 6 6 6 6 6
-7 -7 -7 -7 -7 -8 -9 -9 -9 -9 -9 -9 -9 -8 -8 -7 -6 -4 -3 -1 -0 -1 -1 -1 -0 1 2 3 5 6 7 7 7 7 7 7 7 8
-7 -7 -8 -8 -8 -9 -9 -9 -9 -9 -9 -9 -8 -8 -7 -6 -4 -2 -1 -0 -0 -1 -0 0 1 2 3 3 4 6 7 7 7 7 7 7 8 9
-8 -8 -9 -9 -9 -9 -9 -9 -9 -9 -8 -8 -7 -6 -5 -4 -2 -1 -0 -0 -0 -0 0 1 1 2 3 3 4 6 6 7 7 7 7 7 8 8
-9 -9 -9 -9 -9 -9 -9 -8 -8 -8 -7 -6 -5 -4 -3 -2 -1 -1 -0 0 -0 0 1 1 2 2 3 3 4 5 5 6 6 6 6 7 7 8
-9 -9 -9 -8 -8 -8 -8 -7 -7 -6 -5 -4 -4 -3 -2 -1 -0 0 0 1 1 1 1 2 2 3 3 3 4 4 5 5 6 6 6 6 6 6
-8 -8 -8 -7 -7 -7 -6 -6 -5 -4 -4 -3 -2 -1 0 1 1 1 1 1 1 2 2 2 3 3 3 4 4 4 5 5 5 5 5 6 6 6
-7 -7 -7 -7 -6 -6 -5 -5 -4 -3 -2 -2 -1 0 1 2 1 1 1 1 2 2 2 3 3 3 3 4 4 5 5 5 5 5 5 6 6 6